AirNav   Duncan Aviation - Near you to keep you flying
 
 1588 users online  

CN19 Las Serpientes Airport
Knightsen, California, USA

GOING TO KNIGHTSEN?


FAA INFORMATION EFFECTIVE 04 NOVEMBER 2021

Location

FAA Identifier: CN19
Lat/Long: 37-56-08.3500N 121-36-46.2300W
37-56.139167N 121-36.770500W
37.9356528,-121.6128417
(estimated)
Elevation: 10 ft. / 3 m (estimated)
From city: 2 miles SE of KNIGHTSEN, CA
Time zone: UTC -7 (UTC -8 during Standard Time)
Zip code: 94513

Airport Operations

Airport use: Private use. Permission required prior to landing
Activation date: 02/2004
Control tower: no
ARTCC: OAKLAND CENTER
FSS: OAKLAND FLIGHT SERVICE STATION
Attendance: UNATNDD
Segmented circle: no

Airport Communications

WX AWOS-3 at C83 (6 nm S): 123.775 (925-634-0906)
WX AWOS-AV at O88 (16 nm N): 127.075 (707-374-5396)
WX AWOS-3 at TCY (17 nm SE): 118.375 (209-831-4335)
WX ASOS at LVK (18 nm SW): PHONE 925-606-5412
WX ASOS at SCK (18 nm E): PHONE 209-982-4270

Nearby radio navigation aids

VOR radial/distance  VOR name  Freq  Var
CCRr091/21.5CONCORD VOR/DME117.0017E
LINr237/30.0LINDEN VOR/DME114.8017E
SACr168/30.6SACRAMENTO VORTAC115.2017E
OAKr050/31.6OAKLAND VOR/DME116.8017E
MODr284/36.1MODESTO VOR/DME114.6017E
SJCr009/37.2SAN JOSE VOR/DME114.1016E
SGDr095/38.8SCAGGS ISLAND VORTAC112.1017E

Airport Services

Runway Information

Runway 16/34

Dimensions: 1900 x 75 ft. / 579 x 23 m
Surface: turf
Runway edge lights: high intensity
RUNWAY 16  RUNWAY 34
Latitude: 37-56.295833N37-55.982500N
Longitude: 121-36.769500W121-36.771500W
Traffic pattern: leftleft
Displaced threshold: no200 ft.
DSPLCD THLD RY 34 MARKED WITH WHITE BOARDS.
Obstructions: none10 ft. berm, 50 ft. from runway

Airport Ownership and Management from official FAA records

Ownership: Privately-owned
Owner: BRUCE CLEGG
4401 ORWOOD ROAD
BRENTWOOD, CA 94513-5219
Phone 925-634-4064
Manager: BRUCE CLEGG
4401 ORWOOD ROAD
BRENTWOOD, CA 94513-5219
Phone 925-698-4831
CELL 925-698-4831

Airport Operational Statistics

Aircraft based on the field: 1
Single engine airplanes: 1
    

Additional Remarks

OWNER DESIRES ARPT NOT BE CHARTED.
FOR CD CTC NORCAL APCH AT 916-361-0516.

Instrument Procedures

There are no published instrument procedures at CN19.

Some nearby airports with instrument procedures:

C83 - Byron Airport (6 nm S)
O88 - Rio Vista Municipal Airport (16 nm N)
KTCY - Tracy Municipal Airport (17 nm SE)
KLVK - Livermore Municipal Airport (18 nm SW)
KSCK - Stockton Metro Airport (18 nm E)
 
Loc | Ops | Rwys | IFR | FBO | Links
Com | Nav | Svcs | Stats | Notes
Area around CN19 (Las Serpientes Airport)
 
Road maps at: MapQuest Bing Google
 
Aerial photo
WARNING: Photo may not be current or correct
Aerial photo of CN19 (Las Serpientes Airport)
Do you have a better or more recent aerial photo of Las Serpientes Airport that you would like to share? If so, please send us your photo.

 
Sectional chart

 
Airport distance calculator
Flying to Las Serpientes Airport? Find the distance to fly.

From to CN19

Sunrise and sunset
Times for 29-Nov-2021
 Local
(UTC-8)
 Zulu
(UTC)
Morning civil twilight06:3414:34
Sunrise07:0315:03
Sunset16:4700:47
Evening civil twilight17:1601:16

Current date and time
Zulu (UTC)  29-Nov-2021 23:52:41
Local (UTC-8)  29-Nov-2021 15:52:41
 
METAR
KC83 
6nm S 
292335Z AUTO 33006KT 10SM CLR 20/10 A3011 RMK AO2
KTCY 
17nm SE 
292335Z AUTO 33005KT 10SM CLR 20/11 A3011 RMK A01
KLVK 
17nm SW 
292253Z 09008KT 10SM CLR 20/11 A3011 RMK AO2 SLP192 T02000111
KSCK 
19nm E 
292255Z 30006KT 8SM CLR 20/11 A3011 RMK AO2 SLP194 T02000111
TAF
KLVK 
17nm SW 
291730Z 2918/3018 VRB03KT 6SM BR HZ SKC FM292100 06007KT P6SM SKC FM300200 VRB03KT P6SM SKC FM300600 00000KT 5SM BR HZ SKC
KSCK 
19nm E 
291720Z 2918/3018 VRB04KT 3SM BR FEW250 FM292000 30006KT P6SM FEW250 FM300400 VRB03KT 3SM BR FEW250 FM300600 VRB02KT 1 1/2SM BR FEW250 TEMPO 3008/3012 1/4SM FG VV003 FM301400 00000KT 1/4SM FG VV003
NOTAMs
Click for the latest NOTAMs
NOTAMs are issued by the DoD/FAA and will open in a separate window not controlled by AirNav.

 

 
 

Would you like to see your business listed on this page?

 If your business provides an interesting product or service to pilots, flight crews, aircraft, or users of the Las Serpientes Airport, you should consider listing it here.  To start the listing process, click on the button below
 
Add a business
 

Other Pages about Las Serpientes Airport

Update a link
 
Copyright © AirNav, LLC. All rights reserved. Privacy Policy  Contact